Time,TemperatureF,DewpointF,PressureIn,WindDirection,WindDirectionDegrees,WindSpeedMPH,WindSpeedGustMPH,Humidity,HourlyPrecipIn,Conditions,Clouds,dailyrainin,SoftwareType,DateUTC
2013-04-05 00:04:00,-999.0,-99.9,30.11,North,-999,-999.0,-999.0,-999,-99.99,,,0.00,weatherlink.com 1.10,2013-04-05 04:04:00,
2013-04-05 00:19:00,-999.0,-99.9,30.09,North,-999,-999.0,-999.0,-999,-99.99,,,0.00,weatherlink.com 1.10,2013-04-05 04:19:00,
2013-04-05 00:34:00,-999.0,-99.9,30.08,North,-999,-999.0,-999.0,-999,-99.99,,,0.00,weatherlink.com 1.10,2013-04-05 04:34:00,
2013-04-05 00:49:00,-999.0,-99.9,30.07,North,-999,-999.0,-999.0,-999,-99.99,,,0.00,weatherlink.com 1.10,2013-04-05 04:49:00,
2013-04-05 01:04:00,-999.0,-99.9,30.06,North,-999,-999.0,-999.0,-999,-99.99,,,0.00,weatherlink.com 1.10,2013-04-05 05:04:00,
2013-04-05 01:19:00,-999.0,-99.9,30.06,North,-999,-999.0,-999.0,-999,-99.99,,,0.00,weatherlink.com 1.10,2013-04-05 05:19:00,
2013-04-05 01:34:00,-999.0,-99.9,30.05,North,-999,-999.0,-999.0,-999,-99.99,,,0.00,weatherlink.com 1.10,2013-04-05 05:34:00,
2013-04-05 01:49:00,-999.0,-99.9,30.03,North,-999,-999.0,-999.0,-999,-99.99,,,0.00,weatherlink.com 1.10,2013-04-05 05:49:00,
2013-04-05 02:04:00,-999.0,-99.9,30.02,North,-999,-999.0,-999.0,-999,-99.99,,,0.00,weatherlink.com 1.10,2013-04-05 06:04:00,
2013-04-05 02:19:00,-999.0,-99.9,29.99,North,-999,-999.0,-999.0,-999,-99.99,,,0.00,weatherlink.com 1.10,2013-04-05 06:19:00,
2013-04-05 02:34:00,-999.0,-99.9,29.98,North,-999,-999.0,-999.0,-999,-99.99,,,0.00,weatherlink.com 1.10,2013-04-05 06:34:00,
2013-04-05 02:49:00,-999.0,-99.9,29.97,North,-999,-999.0,-999.0,-999,-99.99,,,0.00,weatherlink.com 1.10,2013-04-05 06:49:00,
2013-04-05 03:14:00,-999.0,-99.9,29.93,North,-999,-999.0,-999.0,-999,-99.99,,,0.00,weatherlink.com 1.10,2013-04-05 07:14:00,
2013-04-05 03:34:00,-999.0,-99.9,29.93,North,-999,-999.0,-999.0,-999,-99.99,,,0.00,weatherlink.com 1.10,2013-04-05 07:34:00,
2013-04-05 03:49:00,-999.0,-99.9,29.92,North,-999,-999.0,-999.0,-999,-99.99,,,0.00,weatherlink.com 1.10,2013-04-05 07:49:00,
2013-04-05 04:04:00,-999.0,-99.9,29.92,North,-999,-999.0,-999.0,-999,-99.99,,,0.00,weatherlink.com 1.10,2013-04-05 08:04:00,
2013-04-05 04:19:00,-999.0,-99.9,29.92,North,-999,-999.0,-999.0,-999,-99.99,,,0.00,weatherlink.com 1.10,2013-04-05 08:19:00,
2013-04-05 04:34:00,-999.0,-99.9,29.92,North,-999,-999.0,-999.0,-999,-99.99,,,0.00,weatherlink.com 1.10,2013-04-05 08:34:00,
2013-04-05 04:49:00,-999.0,-99.9,29.91,North,-999,-999.0,-999.0,-999,-99.99,,,0.00,weatherlink.com 1.10,2013-04-05 08:49:00,
2013-04-05 05:19:00,-999.0,-99.9,29.89,North,-999,-999.0,-999.0,-999,-99.99,,,0.00,weatherlink.com 1.10,2013-04-05 09:19:00,
2013-04-05 05:34:00,-999.0,-99.9,29.89,North,-999,-999.0,-999.0,-999,-99.99,,,0.00,weatherlink.com 1.10,2013-04-05 09:34:00,
2013-04-05 05:49:00,-999.0,-99.9,29.88,North,-999,-999.0,-999.0,-999,-99.99,,,0.00,weatherlink.com 1.10,2013-04-05 09:49:00,
2013-04-05 06:19:00,-999.0,-99.9,29.87,North,-999,-999.0,-999.0,-999,-99.99,,,0.00,weatherlink.com 1.10,2013-04-05 10:19:00,
2013-04-05 06:34:00,-999.0,-99.9,29.87,North,-999,-999.0,-999.0,-999,-99.99,,,0.00,weatherlink.com 1.10,2013-04-05 10:34:00,
2013-04-05 06:49:00,-999.0,-99.9,29.88,North,-999,-999.0,-999.0,-999,-99.99,,,0.00,weatherlink.com 1.10,2013-04-05 10:49:00,
2013-04-05 07:04:00,-999.0,-99.9,29.88,North,-999,-999.0,-999.0,-999,-99.99,,,0.00,weatherlink.com 1.10,2013-04-05 11:04:00,
2013-04-05 07:19:00,-999.0,-99.9,29.89,North,-999,-999.0,-999.0,-999,-99.99,,,0.00,weatherlink.com 1.10,2013-04-05 11:19:00,
2013-04-05 07:34:00,-999.0,-99.9,29.86,North,-999,-999.0,-999.0,-999,-99.99,,,0.00,weatherlink.com 1.10,2013-04-05 11:34:00,
2013-04-05 07:49:00,-999.0,-99.9,29.86,North,-999,-999.0,-999.0,-999,-99.99,,,0.00,weatherlink.com 1.10,2013-04-05 11:49:00,
2013-04-05 08:04:00,-999.0,-99.9,29.86,North,-999,-999.0,-999.0,-999,-99.99,,,0.00,weatherlink.com 1.10,2013-04-05 12:04:00,
2013-04-05 08:19:00,-999.0,-99.9,29.86,North,-999,-999.0,-999.0,-999,-99.99,,,0.00,weatherlink.com 1.10,2013-04-05 12:19:00,
2013-04-05 08:34:00,-999.0,-99.9,29.84,North,-999,-999.0,-999.0,-999,-99.99,,,0.00,weatherlink.com 1.10,2013-04-05 12:34:00,
2013-04-05 08:49:00,41.7,41.0,29.84,ENE,61,10.0,-999.0,96,-99.99,,,0.00,weatherlink.com 1.10,2013-04-05 12:49:00,
2013-04-05 09:19:00,42.3,41.0,29.85,NE,37,3.0,-999.0,96,-99.99,,,0.00,weatherlink.com 1.10,2013-04-05 13:19:00,
2013-04-05 09:34:00,42.5,42.0,29.84,NNE,13,5.0,-999.0,96,-99.99,,,0.00,weatherlink.com 1.10,2013-04-05 13:34:00,
2013-04-05 09:49:00,42.6,42.0,29.85,North,360,6.0,-999.0,96,-99.99,,,0.00,weatherlink.com 1.10,2013-04-05 13:49:00,
2013-04-05 10:04:00,42.5,42.0,29.85,North,355,8.0,-999.0,96,-99.99,,,0.00,weatherlink.com 1.10,2013-04-05 14:04:00,
2013-04-05 10:19:00,42.6,42.0,29.85,NNE,15,5.0,-999.0,96,-99.99,,,0.00,weatherlink.com 1.10,2013-04-05 14:19:00,
2013-04-05 10:49:00,43.4,42.0,29.84,North,360,5.0,-999.0,95,-99.99,,,0.00,weatherlink.com 1.10,2013-04-05 14:49:00,
2013-04-05 11:04:00,44.5,43.0,29.83,North,9,7.0,-999.0,95,-99.99,,,0.00,weatherlink.com 1.10,2013-04-05 15:04:00,
2013-04-05 11:19:00,45.8,44.0,29.83,North,360,9.0,-999.0,93,-99.99,,,0.00,weatherlink.com 1.10,2013-04-05 15:19:00,
2013-04-05 11:34:00,46.9,45.0,29.83,NNE,24,2.0,-999.0,92,-99.99,,,0.00,weatherlink.com 1.10,2013-04-05 15:34:00,
2013-04-05 11:50:00,47.7,45.0,29.83,North,360,6.0,-999.0,89,-99.99,,,0.00,weatherlink.com 1.10,2013-04-05 15:50:00,
2013-04-05 12:04:00,49.0,45.0,29.83,North,11,2.0,-999.0,87,-99.99,,,0.00,weatherlink.com 1.10,2013-04-05 16:04:00,
2013-04-05 12:19:00,49.0,45.0,29.82,NNE,15,6.0,-999.0,85,-99.99,,,0.00,weatherlink.com 1.10,2013-04-05 16:19:00,
2013-04-05 12:34:00,48.5,44.0,29.82,NNE,17,10.0,-999.0,84,-99.99,,,0.00,weatherlink.com 1.10,2013-04-05 16:34:00,
2013-04-05 13:04:00,49.8,42.0,29.80,NNE,18,5.0,-999.0,74,-99.99,,,0.00,weatherlink.com 1.10,2013-04-05 17:04:00,
2013-04-05 13:19:00,50.8,42.0,29.80,NE,34,7.0,-999.0,71,-99.99,,,0.00,weatherlink.com 1.10,2013-04-05 17:19:00,
2013-04-05 13:34:00,51.4,40.0,29.80,NE,34,9.0,-999.0,66,-99.99,,,0.00,weatherlink.com 1.10,2013-04-05 17:34:00,
2013-04-05 13:49:00,50.9,42.0,29.79,NNE,28,4.0,-999.0,71,-99.99,,,0.00,weatherlink.com 1.10,2013-04-05 17:49:00,
2013-04-05 14:04:00,51.8,43.0,29.79,NNE,30,5.0,-999.0,71,-99.99,,,0.00,weatherlink.com 1.10,2013-04-05 18:04:00,
2013-04-05 14:19:00,52.0,44.0,29.78,NNE,28,3.0,-999.0,73,-99.99,,,0.00,weatherlink.com 1.10,2013-04-05 18:19:00,
2013-04-05 14:34:00,52.7,44.0,29.78,NNE,33,3.0,-999.0,73,-99.99,,,0.00,weatherlink.com 1.10,2013-04-05 18:34:00,
2013-04-05 14:49:00,53.0,44.0,29.78,NE,35,3.0,-999.0,71,-99.99,,,0.00,weatherlink.com 1.10,2013-04-05 18:49:00,
2013-04-05 15:04:00,52.6,43.0,29.78,NE,35,0.0,-999.0,70,-99.99,,,0.00,weatherlink.com 1.10,2013-04-05 19:04:00,
2013-04-05 15:19:00,53.2,43.0,29.77,NE,35,0.0,-999.0,68,-99.99,,,0.00,weatherlink.com 1.10,2013-04-05 19:19:00,
2013-04-05 15:49:00,52.7,42.0,29.77,NE,35,0.0,-999.0,66,-99.99,,,0.00,weatherlink.com 1.10,2013-04-05 19:49:00,
2013-04-05 16:04:00,53.0,41.0,29.77,NE,35,0.0,-999.0,65,-99.99,,,0.00,weatherlink.com 1.10,2013-04-05 20:04:00,
2013-04-05 16:19:00,54.2,41.0,29.77,NE,35,0.0,-999.0,62,-99.99,,,0.00,weatherlink.com 1.10,2013-04-05 20:19:00,
2013-04-05 16:34:00,56.4,42.0,29.77,NE,35,0.0,-999.0,59,-99.99,,,0.00,weatherlink.com 1.10,2013-04-05 20:34:00,
2013-04-05 16:49:00,56.5,39.0,29.78,NE,35,0.0,-999.0,52,-99.99,,,0.00,weatherlink.com 1.10,2013-04-05 20:49:00,
2013-04-05 17:04:00,56.0,37.0,29.78,NE,35,0.0,-999.0,50,-99.99,,,0.00,weatherlink.com 1.10,2013-04-05 21:04:00,
2013-04-05 17:19:00,56.5,37.0,29.77,NE,35,0.0,-999.0,48,-99.99,,,0.00,weatherlink.com 1.10,2013-04-05 21:19:00,
2013-04-05 17:34:00,56.8,36.0,29.78,NE,35,0.0,-999.0,46,-99.99,,,0.00,weatherlink.com 1.10,2013-04-05 21:34:00,
2013-04-05 17:49:00,57.5,34.0,29.79,NE,35,0.0,-999.0,42,-99.99,,,0.00,weatherlink.com 1.10,2013-04-05 21:49:00,
2013-04-05 18:04:00,59.3,32.0,29.79,North,360,0.0,-999.0,36,-99.99,,,0.00,weatherlink.com 1.10,2013-04-05 22:04:00,
2013-04-05 18:19:00,59.8,32.0,29.80,North,360,0.0,-999.0,35,-99.99,,,0.00,weatherlink.com 1.10,2013-04-05 22:19:00,
2013-04-05 18:34:00,59.7,33.0,29.80,North,360,0.0,-999.0,37,-99.99,,,0.00,weatherlink.com 1.10,2013-04-05 22:34:00,
2013-04-05 18:49:00,-999.0,-99.9,29.80,North,-999,-999.0,-999.0,-999,-99.99,,,0.00,weatherlink.com 1.10,2013-04-05 22:49:00,
2013-04-05 19:04:00,-999.0,-99.9,29.81,North,-999,-999.0,-999.0,-999,-99.99,,,0.00,weatherlink.com 1.10,2013-04-05 23:04:00,
2013-04-05 19:19:00,-999.0,-99.9,29.82,North,-999,-999.0,-999.0,-999,-99.99,,,0.00,weatherlink.com 1.10,2013-04-05 23:19:00,
2013-04-05 19:34:00,-999.0,-99.9,29.82,North,-999,-999.0,-999.0,-999,-99.99,,,0.00,weatherlink.com 1.10,2013-04-05 23:34:00,
2013-04-05 19:49:00,-999.0,-99.9,29.83,North,-999,-999.0,-999.0,-999,-99.99,,,0.00,weatherlink.com 1.10,2013-04-05 23:49:00,
2013-04-05 20:04:00,-999.0,-99.9,29.83,North,-999,-999.0,-999.0,-999,-99.99,,,0.00,weatherlink.com 1.10,2013-04-06 00:04:00,
2013-04-05 20:19:00,-999.0,-99.9,29.84,North,-999,-999.0,-999.0,-999,-99.99,,,0.00,weatherlink.com 1.10,2013-04-06 00:19:00,
2013-04-05 20:34:00,-999.0,-99.9,29.85,North,-999,-999.0,-999.0,-999,-99.99,,,0.00,weatherlink.com 1.10,2013-04-06 00:34:00,
2013-04-05 21:04:00,-999.0,-99.9,29.87,North,-999,-999.0,-999.0,-999,-99.99,,,0.00,weatherlink.com 1.10,2013-04-06 01:04:00,
2013-04-05 21:19:00,-999.0,-99.9,29.88,North,-999,-999.0,-999.0,-999,-99.99,,,0.00,weatherlink.com 1.10,2013-04-06 01:19:00,
2013-04-05 21:34:00,-999.0,-99.9,29.89,North,-999,-999.0,-999.0,-999,-99.99,,,0.00,weatherlink.com 1.10,2013-04-06 01:34:00,
2013-04-05 21:49:00,-999.0,-99.9,29.90,North,-999,-999.0,-999.0,-999,-99.99,,,0.00,weatherlink.com 1.10,2013-04-06 01:49:00,
2013-04-05 22:04:00,-999.0,-99.9,29.91,North,-999,-999.0,-999.0,-999,-99.99,,,0.00,weatherlink.com 1.10,2013-04-06 02:04:00,
2013-04-05 22:19:00,-999.0,-99.9,29.91,North,-999,-999.0,-999.0,-999,-99.99,,,0.00,weatherlink.com 1.10,2013-04-06 02:19:00,
2013-04-05 22:34:00,-999.0,-99.9,29.91,North,-999,-999.0,-999.0,-999,-99.99,,,0.00,weatherlink.com 1.10,2013-04-06 02:34:00,
2013-04-05 23:04:00,-999.0,-99.9,29.92,North,-999,-999.0,-999.0,-999,-99.99,,,0.00,weatherlink.com 1.10,2013-04-06 03:04:00,
2013-04-05 23:19:00,-999.0,-99.9,29.93,North,-999,-999.0,-999.0,-999,-99.99,,,0.00,weatherlink.com 1.10,2013-04-06 03:19:00,
2013-04-05 23:34:00,-999.0,-99.9,29.94,North,-999,-999.0,-999.0,-999,-99.99,,,0.00,weatherlink.com 1.10,2013-04-06 03:34:00,
2013-04-05 23:49:00,-999.0,-99.9,29.94,North,-999,-999.0,-999.0,-999,-99.99,,,0.00,weatherlink.com 1.10,2013-04-06 03:49:00,